Precipitable_Water
0.27 0.25 0.24 0.23 0.20 0.19 0.18 0.18 0.17 0.17 0.17 0.17 0.16 0.15 0.15 0.14 0.14 0.13 0.13 0.13 0.13 0.12 0.12 0.11 0.11 0.11 0.11 0.10 0.10 0.10 0.10 0.10 0.11 0.11 0.10 0.10 0.10 0.10 0.10 0.10 0.09 0.09 0.10 0.09 0.10 0.10 0.10 0.10 0.11 0.11 0.12 0.12 0.12 0.12 0.12 0.12 0.13 0.13 0.13 0.13 0.12 0.12 0.12 0.12 0.11 0.10 0.12 0.15 0.14 0.14 0.16 0.18 0.17 0.19 0.21 0.23 0.26 0.30 0.35 0.41 0.48 0.53 0.54 0.55 0.57
0.24 0.23 0.21 0.19 0.18 0.18 0.17 0.17 0.17 0.17 0.16 0.16 0.15 0.15 0.15 0.14 0.14 0.14 0.13 0.14 0.14 0.13 0.12 0.12 0.12 0.12 0.11 0.11 0.11 0.11 0.11 0.10 0.10 0.10 0.10 0.10 0.10 0.10 0.10 0.10 0.09 0.09 0.10 0.09 0.10 0.10 0.10 0.10 0.10 0.11 0.12 0.11 0.12 0.12 0.12 0.13 0.12 0.12 0.12 0.13 0.13 0.13 0.14 0.13 0.11 0.11 0.10 0.12 0.13 0.13 0.13 0.15 0.15 0.16 0.17 0.18 0.21 0.24 0.26 0.30 0.36 0.43 0.51 0.54 0.55
0.23 0.21 0.19 0.19 0.18 0.18 0.18 0.18 0.18 0.18 0.17 0.17 0.16 0.16 0.15 0.15 0.15 0.14 0.14 0.14 0.14 0.14 0.13 0.13 0.12 0.12 0.11 0.11 0.11 0.10 0.11 0.10 0.11 0.10 0.10 0.10 0.10 0.10 0.10 0.10 0.10 0.09 0.09 0.10 0.10 0.11 0.11 0.10 0.11 0.11 0.12 0.11 0.11 0.12 0.12 0.12 0.13 0.13 0.12 0.13 0.13 0.13 0.14 0.15 0.13 0.11 0.11 0.11 0.13 0.12 0.12 0.12 0.13 0.13 0.16 0.17 0.18 0.21 0.22 0.25 0.27 0.32 0.39 0.47 0.53
0.20 0.19 0.19 0.19 0.19 0.18 0.18 0.19 0.18 0.18 0.18 0.18 0.17 0.17 0.17 0.17 0.17 0.16 0.16 0.15 0.14 0.14 0.14 0.13 0.12 0.12 0.11 0.11 0.11 0.11 0.11 0.11 0.11 0.11 0.10 0.10 0.10 0.10 0.10 0.10 0.10 0.10 0.10 0.10 0.11 0.11 0.11 0.11 0.11 0.12 0.12 0.11 0.11 0.11 0.12 0.12 0.12 0.12 0.12 0.13 0.13 0.13 0.14 0.14 0.14 0.13 0.12 0.12 0.12 0.14 0.14 0.12 0.12 0.12 0.14 0.16 0.16 0.17 0.19 0.21 0.24 0.26 0.29 0.35 0.42
0.20 0.19 0.19 0.19 0.19 0.19 0.19 0.19 0.18 0.18 0.18 0.18 0.18 0.18 0.18 0.18 0.18 0.17 0.17 0.16 0.16 0.15 0.14 0.14 0.13 0.12 0.12 0.11 0.11 0.11 0.11 0.11 0.11 0.10 0.11 0.11 0.10 0.10 0.11 0.11 0.11 0.11 0.11 0.11 0.12 0.12 0.12 0.11 0.12 0.12 0.12 0.12 0.11 0.12 0.12 0.12 0.12 0.12 0.12 0.12 0.12 0.13 0.14 0.14 0.14 0.14 0.13 0.12 0.12 0.14 0.15 0.15 0.15 0.13 0.13 0.13 0.13 0.15 0.16 0.17 0.19 0.21 0.24 0.27 0.31
0.20 0.20 0.20 0.19 0.19 0.19 0.19 0.19 0.18 0.18 0.19 0.19 0.19 0.19 0.19 0.19 0.18 0.18 0.18 0.17 0.16 0.15 0.14 0.14 0.13 0.12 0.12 0.12 0.11 0.11 0.11 0.11 0.11 0.11 0.11 0.11 0.11 0.11 0.11 0.12 0.12 0.12 0.12 0.12 0.12 0.12 0.12 0.12 0.12 0.12 0.12 0.12 0.11 0.12 0.12 0.12 0.12 0.12 0.11 0.12 0.12 0.13 0.13 0.13 0.14 0.14 0.14 0.13 0.13 0.13 0.14 0.14 0.14 0.14 0.13 0.12 0.12 0.12 0.13 0.14 0.16 0.18 0.20 0.22 0.24
0.20 0.20 0.19 0.19 0.18 0.18 0.18 0.18 0.19 0.19 0.20 0.20 0.20 0.20 0.20 0.20 0.19 0.18 0.18 0.17 0.16 0.15 0.15 0.14 0.13 0.13 0.12 0.12 0.12 0.11 0.11 0.11 0.11 0.11 0.11 0.11 0.11 0.12 0.12 0.12 0.12 0.12 0.12 0.12 0.12 0.12 0.12 0.12 0.12 0.12 0.12 0.12 0.12 0.12 0.12 0.12 0.12 0.12 0.12 0.12 0.13 0.13 0.13 0.13 0.13 0.14 0.14 0.13 0.13 0.14 0.14 0.15 0.15 0.13 0.14 0.15 0.14 0.12 0.11 0.12 0.13 0.15 0.17 0.18 0.20
0.20 0.19 0.19 0.18 0.18 0.18 0.19 0.19 0.20 0.21 0.21 0.21 0.21 0.21 0.20 0.20 0.19 0.18 0.18 0.17 0.16 0.15 0.15 0.14 0.14 0.13 0.13 0.12 0.12 0.12 0.11 0.11 0.11 0.11 0.11 0.12 0.12 0.12 0.12 0.12 0.11 0.11 0.11 0.11 0.12 0.12 0.12 0.12 0.12 0.13 0.13 0.12 0.12 0.12 0.12 0.12 0.13 0.13 0.13 0.14 0.14 0.14 0.13 0.13 0.13 0.13 0.13 0.13 0.13 0.12 0.14 0.15 0.16 0.16 0.16 0.16 0.14 0.12 0.12 0.12 0.11 0.11 0.13 0.16 0.18
0.19 0.18 0.18 0.18 0.18 0.19 0.20 0.21 0.21 0.21 0.21 0.21 0.21 0.20 0.20 0.19 0.18 0.18 0.17 0.17 0.16 0.16 0.16 0.15 0.14 0.14 0.13 0.13 0.12 0.12 0.11 0.11 0.11 0.11 0.12 0.12 0.12 0.12 0.12 0.12 0.11 0.11 0.11 0.11 0.12 0.12 0.12 0.12 0.12 0.13 0.13 0.13 0.13 0.14 0.14 0.14 0.14 0.13 0.13 0.14 0.14 0.14 0.13 0.13 0.13 0.13 0.13 0.13 0.13 0.13 0.13 0.14 0.15 0.15 0.15 0.15 0.13 0.12 0.13 0.14 0.12 0.12 0.13 0.14 0.16
0.18 0.18 0.18 0.19 0.20 0.20 0.21 0.21 0.21 0.22 0.21 0.21 0.20 0.20 0.19 0.18 0.18 0.17 0.17 0.17 0.17 0.16 0.16 0.15 0.15 0.14 0.13 0.12 0.12 0.11 0.11 0.11 0.11 0.12 0.13 0.13 0.12 0.12 0.12 0.12 0.12 0.12 0.11 0.11 0.11 0.12 0.12 0.12 0.12 0.12 0.12 0.12 0.12 0.12 0.12 0.13 0.13 0.14 0.14 0.14 0.14 0.14 0.14 0.14 0.13 0.14 0.13 0.13 0.12 0.13 0.12 0.12 0.13 0.14 0.15 0.15 0.16 0.17 0.15 0.14 0.13 0.12 0.12 0.12 0.13
0.18 0.18 0.19 0.20 0.21 0.21 0.22 0.22 0.22 0.21 0.21 0.20 0.19 0.18 0.18 0.18 0.18 0.17 0.17 0.17 0.16 0.16 0.16 0.15 0.14 0.14 0.13 0.12 0.12 0.11 0.11 0.11 0.12 0.12 0.13 0.13 0.13 0.13 0.12 0.12 0.12 0.12 0.12 0.11 0.11 0.11 0.12 0.12 0.12 0.11 0.11 0.10 0.10 0.10 0.11 0.11 0.12 0.12 0.12 0.12 0.13 0.14 0.14 0.14 0.14 0.15 0.14 0.14 0.14 0.14 0.13 0.13 0.13 0.14 0.15 0.16 0.17 0.18 0.17 0.17 0.15 0.14 0.12 0.11 0.09
0.19 0.19 0.20 0.21 0.22 0.22 0.22 0.22 0.21 0.20 0.20 0.19 0.19 0.18 0.18 0.18 0.18 0.17 0.17 0.16 0.16 0.16 0.15 0.15 0.14 0.14 0.13 0.12 0.12 0.11 0.11 0.11 0.11 0.12 0.13 0.13 0.14 0.13 0.13 0.12 0.12 0.12 0.12 0.12 0.12 0.11 0.11 0.11 0.11 0.10 0.10 0.10 0.10 0.11 0.11 0.11 0.11 0.12 0.12 0.13 0.13 0.14 0.14 0.14 0.13 0.13 0.14 0.14 0.14 0.14 0.14 0.14 0.15 0.17 0.18 0.18 0.18 0.19 0.19 0.19 0.18 0.16 0.14 0.13 0.13
0.20 0.21 0.22 0.22 0.22 0.22 0.21 0.20 0.20 0.19 0.19 0.19 0.19 0.19 0.18 0.18 0.18 0.18 0.17 0.17 0.16 0.15 0.15 0.15 0.14 0.14 0.13 0.12 0.11 0.11 0.10 0.11 0.11 0.12 0.13 0.13 0.13 0.14 0.13 0.13 0.12 0.12 0.12 0.12 0.11 0.11 0.11 0.10 0.10 0.10 0.10 0.10 0.10 0.10 0.10 0.11 0.11 0.12 0.12 0.13 0.14 0.14 0.14 0.15 0.15 0.15 0.15 0.14 0.13 0.13 0.13 0.14 0.15 0.16 0.18 0.19 0.20 0.19 0.19 0.18 0.18 0.18 0.17 0.16 0.14
0.21 0.22 0.22 0.22 0.22 0.21 0.20 0.20 0.19 0.19 0.20 0.20 0.19 0.19 0.18 0.18 0.18 0.18 0.17 0.17 0.16 0.15 0.15 0.14 0.14 0.13 0.12 0.12 0.11 0.10 0.10 0.11 0.11 0.12 0.12 0.13 0.13 0.13 0.13 0.12 0.12 0.12 0.11 0.11 0.11 0.11 0.10 0.10 0.10 0.09 0.10 0.10 0.10 0.10 0.11 0.11 0.11 0.12 0.12 0.13 0.13 0.14 0.15 0.15 0.16 0.17 0.17 0.16 0.15 0.14 0.15 0.16 0.15 0.16 0.17 0.18 0.17 0.16 0.16 0.17 0.19 0.19 0.19 0.18 0.18
0.21 0.22 0.21 0.21 0.21 0.20 0.20 0.20 0.20 0.20 0.20 0.20 0.19 0.19 0.18 0.18 0.18 0.18 0.17 0.16 0.15 0.14 0.14 0.14 0.13 0.13 0.12 0.11 0.11 0.10 0.10 0.11 0.11 0.12 0.12 0.12 0.13 0.13 0.13 0.12 0.12 0.11 0.11 0.11 0.11 0.11 0.11 0.10 0.10 0.10 0.10 0.10 0.10 0.11 0.11 0.12 0.12 0.12 0.13 0.13 0.14 0.14 0.15 0.15 0.16 0.16 0.16 0.17 0.18 0.17 0.17 0.18 0.18 0.17 0.17 0.17 0.17 0.17 0.16 0.16 0.17 0.19 0.20 0.21 0.21
0.21 0.21 0.21 0.21 0.20 0.20 0.20 0.20 0.20 0.20 0.20 0.20 0.19 0.19 0.18 0.18 0.17 0.17 0.16 0.16 0.15 0.15 0.14 0.14 0.13 0.12 0.12 0.11 0.10 0.10 0.10 0.11 0.11 0.11 0.12 0.12 0.13 0.12 0.12 0.11 0.11 0.11 0.11 0.11 0.11 0.11 0.11 0.10 0.10 0.10 0.10 0.10 0.11 0.12 0.12 0.13 0.13 0.13 0.13 0.14 0.14 0.15 0.16 0.17 0.18 0.19 0.19 0.19 0.19 0.19 0.19 0.19 0.20 0.20 0.20 0.20 0.21 0.22 0.23 0.23 0.22 0.20 0.18 0.16 0.15
0.20 0.20 0.20 0.20 0.20 0.20 0.20 0.20 0.20 0.20 0.19 0.19 0.18 0.18 0.18 0.17 0.17 0.17 0.16 0.15 0.14 0.14 0.14 0.13 0.13 0.12 0.11 0.10 0.10 0.09 0.10 0.10 0.11 0.11 0.12 0.12 0.12 0.12 0.12 0.12 0.11 0.11 0.11 0.11 0.11 0.11 0.11 0.11 0.11 0.11 0.11 0.11 0.11 0.12 0.13 0.14 0.13 0.13 0.14 0.14 0.16 0.16 0.17 0.18 0.19 0.19 0.19 0.18 0.17 0.17 0.17 0.18 0.18 0.19 0.20 0.21 0.21 0.21 0.21 0.20 0.19 0.20 0.19 0.17 0.17
0.19 0.19 0.19 0.19 0.20 0.20 0.20 0.20 0.19 0.19 0.19 0.18 0.18 0.18 0.18 0.17 0.17 0.17 0.16 0.15 0.14 0.14 0.14 0.13 0.12 0.12 0.11 0.10 0.10 0.09 0.09 0.10 0.11 0.11 0.12 0.12 0.13 0.12 0.12 0.11 0.11 0.11 0.11 0.11 0.11 0.11 0.11 0.11 0.12 0.11 0.11 0.11 0.12 0.13 0.14 0.15 0.15 0.15 0.15 0.15 0.16 0.16 0.17 0.18 0.18 0.18 0.18 0.17 0.17 0.16 0.16 0.16 0.16 0.16 0.17 0.18 0.19 0.20 0.19 0.16 0.17 0.19 0.17 0.18 0.17
0.18 0.19 0.19 0.19 0.20 0.20 0.20 0.19 0.19 0.19 0.18 0.18 0.18 0.18 0.17 0.17 0.17 0.17 0.16 0.15 0.14 0.14 0.13 0.13 0.12 0.11 0.10 0.10 0.10 0.10 0.10 0.10 0.11 0.11 0.12 0.12 0.13 0.13 0.12 0.12 0.11 0.11 0.11 0.10 0.11 0.11 0.11 0.12 0.12 0.12 0.13 0.13 0.14 0.14 0.15 0.16 0.15 0.16 0.16 0.16 0.16 0.16 0.17 0.18 0.18 0.17 0.17 0.16 0.16 0.16 0.16 0.16 0.16 0.16 0.16 0.16 0.16 0.17 0.17 0.17 0.17 0.17 0.16 0.17 0.18
0.19 0.19 0.19 0.19 0.20 0.19 0.19 0.19 0.19 0.18 0.18 0.18 0.18 0.18 0.18 0.18 0.17 0.16 0.15 0.14 0.14 0.13 0.13 0.12 0.10 0.10 0.10 0.10 0.10 0.10 0.10 0.10 0.10 0.11 0.12 0.12 0.13 0.13 0.13 0.11 0.10 0.10 0.10 0.11 0.11 0.11 0.12 0.12 0.12 0.13 0.13 0.14 0.14 0.15 0.16 0.17 0.17 0.17 0.17 0.16 0.16 0.16 0.18 0.18 0.18 0.18 0.17 0.17 0.16 0.17 0.16 0.17 0.17 0.17 0.17 0.17 0.16 0.16 0.16 0.15 0.15 0.14 0.15 0.15 0.16
0.19 0.19 0.19 0.19 0.19 0.19 0.19 0.19 0.18 0.18 0.18 0.18 0.18 0.18 0.18 0.17 0.16 0.15 0.14 0.14 0.13 0.13 0.12 0.11 0.09 0.09 0.09 0.10 0.10 0.10 0.10 0.10 0.11 0.11 0.12 0.12 0.13 0.13 0.12 0.12 0.11 0.11 0.11 0.11 0.12 0.11 0.12 0.12 0.12 0.13 0.13 0.14 0.15 0.15 0.16 0.17 0.17 0.17 0.17 0.17 0.18 0.19 0.19 0.19 0.19 0.19 0.19 0.18 0.17 0.17 0.17 0.17 0.17 0.17 0.17 0.16 0.16 0.16 0.16 0.16 0.16 0.16 0.16 0.16 0.16
0.19 0.19 0.19 0.19 0.19 0.19 0.19 0.19 0.19 0.19 0.19 0.18 0.18 0.18 0.17 0.17 0.15 0.14 0.14 0.13 0.12 0.11 0.10 0.09 0.09 0.09 0.09 0.10 0.10 0.10 0.11 0.11 0.11 0.11 0.12 0.12 0.13 0.13 0.12 0.12 0.13 0.13 0.12 0.12 0.12 0.12 0.12 0.12 0.13 0.13 0.14 0.15 0.15 0.16 0.17 0.17 0.17 0.17 0.17 0.18 0.18 0.19 0.19 0.19 0.19 0.19 0.18 0.17 0.17 0.16 0.16 0.16 0.16 0.16 0.16 0.16 0.17 0.17 0.17 0.16 0.16 0.17 0.17 0.16 0.15
0.19 0.19 0.19 0.19 0.19 0.19 0.19 0.19 0.19 0.19 0.19 0.18 0.18 0.17 0.17 0.16 0.15 0.14 0.13 0.12 0.11 0.10 0.09 0.09 0.09 0.09 0.09 0.10 0.10 0.10 0.11 0.11 0.11 0.11 0.12 0.12 0.12 0.13 0.13 0.13 0.14 0.14 0.13 0.12 0.12 0.12 0.13 0.13 0.13 0.14 0.14 0.15 0.16 0.17 0.17 0.17 0.17 0.18 0.18 0.17 0.17 0.18 0.18 0.17 0.17 0.17 0.16 0.16 0.15 0.15 0.15 0.15 0.14 0.14 0.15 0.15 0.16 0.16 0.16 0.16 0.16 0.16 0.16 0.18 0.18
0.20 0.19 0.19 0.19 0.19 0.19 0.19 0.19 0.19 0.19 0.18 0.18 0.17 0.16 0.15 0.15 0.14 0.13 0.12 0.11 0.10 0.09 0.08 0.09 0.09 0.09 0.09 0.09 0.10 0.10 0.10 0.11 0.11 0.12 0.12 0.12 0.12 0.13 0.13 0.14 0.14 0.14 0.14 0.13 0.13 0.13 0.13 0.13 0.14 0.15 0.16 0.16 0.16 0.16 0.16 0.16 0.17 0.17 0.17 0.16 0.16 0.16 0.16 0.16 0.16 0.16 0.15 0.15 0.14 0.14 0.13 0.14 0.14 0.14 0.14 0.14 0.14 0.14 0.15 0.15 0.15 0.15 0.15 0.15 0.16
0.20 0.19 0.19 0.19 0.20 0.19 0.19 0.19 0.19 0.18 0.18 0.17 0.16 0.15 0.14 0.14 0.13 0.12 0.11 0.10 0.09 0.08 0.08 0.09 0.08 0.09 0.09 0.09 0.09 0.09 0.10 0.11 0.11 0.11 0.12 0.12 0.12 0.13 0.13 0.14 0.14 0.14 0.14 0.14 0.14 0.14 0.14 0.15 0.15 0.15 0.15 0.16 0.16 0.16 0.16 0.16 0.16 0.16 0.17 0.17 0.17 0.17 0.16 0.15 0.15 0.14 0.13 0.13 0.13 0.13 0.13 0.13 0.13 0.14 0.14 0.14 0.15 0.15 0.15 0.15 0.15 0.15 0.16 0.16 0.16
0.19 0.19 0.19 0.20 0.20 0.19 0.19 0.19 0.18 0.18 0.17 0.17 0.16 0.15 0.14 0.13 0.12 0.11 0.10 0.09 0.09 0.08 0.08 0.09 0.09 0.09 0.08 0.09 0.09 0.09 0.10 0.11 0.11 0.11 0.12 0.12 0.12 0.12 0.13 0.14 0.14 0.14 0.14 0.14 0.14 0.14 0.14 0.14 0.15 0.15 0.15 0.16 0.16 0.16 0.16 0.17 0.17 0.17 0.17 0.17 0.16 0.15 0.15 0.14 0.14 0.13 0.13 0.13 0.13 0.13 0.13 0.14 0.14 0.15 0.15 0.15 0.15 0.14 0.14 0.14 0.14 0.14 0.15 0.15 0.15
0.19 0.19 0.19 0.19 0.19 0.19 0.18 0.18 0.17 0.17 0.17 0.16 0.15 0.14 0.13 0.12 0.11 0.10 0.09 0.09 0.09 0.09 0.09 0.09 0.09 0.09 0.09 0.09 0.09 0.10 0.10 0.10 0.11 0.11 0.12 0.12 0.12 0.12 0.13 0.14 0.14 0.14 0.14 0.14 0.14 0.14 0.14 0.15 0.15 0.15 0.15 0.15 0.15 0.15 0.15 0.15 0.15 0.15 0.15 0.15 0.15 0.15 0.15 0.15 0.15 0.14 0.14 0.14 0.14 0.14 0.14 0.15 0.15 0.15 0.15 0.15 0.14 0.14 0.15 0.14 0.14 0.14 0.15 0.15 0.15
0.19 0.19 0.19 0.19 0.19 0.19 0.18 0.18 0.17 0.17 0.16 0.15 0.14 0.13 0.13 0.12 0.11 0.09 0.09 0.09 0.09 0.09 0.09 0.09 0.09 0.09 0.09 0.09 0.10 0.10 0.10 0.10 0.11 0.11 0.11 0.12 0.13 0.13 0.14 0.15 0.14 0.14 0.14 0.14 0.14 0.15 0.15 0.14 0.14 0.14 0.13 0.13 0.13 0.14 0.14 0.15 0.15 0.15 0.15 0.15 0.15 0.15 0.16 0.16 0.16 0.16 0.15 0.15 0.15 0.15 0.15 0.15 0.15 0.14 0.15 0.14 0.14 0.14 0.15 0.15 0.14 0.14 0.15 0.15 0.15
0.19 0.19 0.19 0.19 0.19 0.18 0.18 0.17 0.17 0.16 0.15 0.14 0.13 0.13 0.12 0.11 0.10 0.10 0.10 0.10 0.10 0.10 0.09 0.09 0.10 0.10 0.10 0.10 0.09 0.09 0.09 0.10 0.11 0.12 0.13 0.14 0.14 0.14 0.14 0.14 0.14 0.14 0.15 0.15 0.15 0.14 0.13 0.12 0.12 0.12 0.12 0.12 0.12 0.12 0.12 0.13 0.13 0.14 0.14 0.14 0.15 0.15 0.16 0.16 0.15 0.15 0.15 0.15 0.15 0.15 0.15 0.15 0.14 0.14 0.14 0.14 0.14 0.14 0.15 0.15 0.15 0.15 0.16 0.16 0.16
0.18 0.18 0.19 0.18 0.18 0.18 0.18 0.17 0.17 0.16 0.15 0.13 0.13 0.12 0.12 0.12 0.11 0.10 0.10 0.11 0.12 0.12 0.12 0.11 0.11 0.11 0.11 0.11 0.12 0.10 0.10 0.11 0.13 0.13 0.14 0.14 0.14 0.15 0.15 0.16 0.15 0.15 0.15 0.15 0.14 0.12 0.12 0.11 0.11 0.11 0.11 0.11 0.11 0.11 0.12 0.13 0.13 0.13 0.14 0.14 0.15 0.15 0.15 0.16 0.16 0.16 0.16 0.16 0.15 0.15 0.15 0.15 0.14 0.14 0.13 0.13 0.14 0.15 0.15 0.15 0.15 0.16 0.16 0.17 0.17
0.18 0.18 0.18 0.18 0.18 0.18 0.17 0.17 0.16 0.15 0.14 0.13 0.12 0.12 0.11 0.11 0.12 0.12 0.12 0.12 0.12 0.12 0.13 0.13 0.13 0.13 0.12 0.11 0.12 0.12 0.12 0.13 0.13 0.13 0.14 0.14 0.14 0.15 0.15 0.15 0.15 0.14 0.14 0.13 0.12 0.11 0.10 0.10 0.10 0.10 0.11 0.11 0.11 0.11 0.12 0.12 0.13 0.13 0.13 0.14 0.15 0.15 0.15 0.16 0.16 0.16 0.16 0.16 0.15 0.15 0.15 0.15 0.14 0.14 0.14 0.14 0.14 0.15 0.16 0.16 0.17 0.17 0.17 0.17 0.17
0.17 0.18 0.18 0.18 0.17 0.17 0.16 0.16 0.15 0.14 0.13 0.13 0.12 0.12 0.11 0.10 0.11 0.12 0.12 0.12 0.12 0.12 0.12 0.12 0.12 0.12 0.12 0.12 0.12 0.11 0.12 0.13 0.13 0.13 0.14 0.14 0.15 0.15 0.15 0.14 0.14 0.13 0.13 0.12 0.11 0.10 0.10 0.10 0.10 0.10 0.10 0.11 0.11 0.12 0.12 0.12 0.12 0.13 0.13 0.13 0.14 0.15 0.15 0.15 0.16 0.16 0.16 0.15 0.15 0.15 0.15 0.16 0.15 0.15 0.15 0.15 0.15 0.16 0.16 0.16 0.16 0.18 0.18 0.19 0.19
0.17 0.17 0.17 0.17 0.16 0.16 0.16 0.15 0.14 0.14 0.13 0.12 0.12 0.12 0.11 0.11 0.10 0.10 0.11 0.12 0.12 0.12 0.12 0.11 0.11 0.11 0.11 0.11 0.12 0.12 0.12 0.13 0.13 0.14 0.14 0.14 0.14 0.14 0.14 0.13 0.12 0.12 0.12 0.11 0.10 0.10 0.10 0.10 0.10 0.10 0.10 0.11 0.11 0.11 0.12 0.12 0.12 0.13 0.13 0.13 0.13 0.14 0.15 0.15 0.15 0.15 0.15 0.15 0.16 0.16 0.16 0.16 0.16 0.16 0.16 0.16 0.16 0.16 0.16 0.17 0.18 0.18 0.19 0.19 0.19
0.17 0.17 0.16 0.16 0.16 0.15 0.15 0.15 0.14 0.14 0.13 0.13 0.12 0.12 0.11 0.11 0.11 0.11 0.10 0.10 0.11 0.11 0.11 0.10 0.10 0.10 0.11 0.11 0.12 0.12 0.13 0.13 0.13 0.14 0.14 0.14 0.14 0.14 0.13 0.12 0.12 0.12 0.11 0.10 0.10 0.10 0.10 0.10 0.10 0.10 0.11 0.11 0.11 0.12 0.12 0.12 0.13 0.13 0.13 0.14 0.14 0.14 0.14 0.15 0.15 0.15 0.15 0.15 0.15 0.15 0.16 0.16 0.17 0.17 0.16 0.17 0.17 0.17 0.17 0.17 0.18 0.18 0.18 0.19 0.19
0.16 0.16 0.16 0.16 0.15 0.15 0.15 0.14 0.14 0.13 0.13 0.12 0.12 0.12 0.12 0.12 0.11 0.11 0.11 0.10 0.09 0.08 0.08 0.09 0.10 0.11 0.10 0.11 0.12 0.12 0.13 0.13 0.13 0.14 0.14 0.14 0.14 0.13 0.12 0.11 0.11 0.11 0.11 0.10 0.10 0.10 0.10 0.10 0.10 0.10 0.11 0.11 0.11 0.12 0.12 0.12 0.13 0.13 0.13 0.14 0.14 0.14 0.14 0.14 0.14 0.14 0.14 0.15 0.15 0.15 0.15 0.16 0.16 0.17 0.18 0.17 0.17 0.17 0.17 0.18 0.18 0.19 0.19 0.19 0.20
0.16 0.15 0.15 0.15 0.15 0.15 0.14 0.14 0.13 0.13 0.13 0.12 0.12 0.12 0.12 0.12 0.12 0.11 0.11 0.10 0.09 0.08 0.08 0.09 0.09 0.10 0.11 0.11 0.12 0.12 0.13 0.13 0.13 0.14 0.14 0.13 0.13 0.12 0.11 0.10 0.10 0.10 0.10 0.10 0.10 0.10 0.10 0.10 0.10 0.10 0.11 0.11 0.11 0.12 0.12 0.12 0.13 0.13 0.14 0.14 0.14 0.14 0.14 0.14 0.14 0.14 0.14 0.14 0.14 0.15 0.15 0.16 0.16 0.17 0.18 0.18 0.18 0.18 0.18 0.18 0.19 0.19 0.20 0.20 0.20
0.15 0.15 0.15 0.14 0.14 0.14 0.14 0.13 0.13 0.13 0.13 0.12 0.12 0.12 0.12 0.12 0.12 0.11 0.10 0.09 0.08 0.08 0.08 0.09 0.09 0.10 0.11 0.11 0.11 0.12 0.13 0.13 0.14 0.14 0.13 0.13 0.13 0.12 0.11 0.11 0.10 0.10 0.10 0.10 0.10 0.10 0.10 0.10 0.10 0.11 0.11 0.11 0.11 0.12 0.12 0.13 0.13 0.14 0.14 0.14 0.14 0.14 0.14 0.14 0.14 0.14 0.14 0.14 0.14 0.15 0.15 0.15 0.16 0.17 0.18 0.18 0.18 0.19 0.19 0.20 0.20 0.20 0.20 0.20 0.20
0.14 0.14 0.14 0.14 0.13 0.13 0.13 0.13 0.12 0.12 0.12 0.12 0.12 0.12 0.12 0.12 0.12 0.11 0.09 0.08 0.08 0.08 0.08 0.09 0.09 0.09 0.09 0.11 0.11 0.12 0.12 0.13 0.14 0.13 0.12 0.12 0.12 0.11 0.11 0.11 0.10 0.10 0.10 0.10 0.10 0.10 0.10 0.10 0.11 0.11 0.11 0.11 0.11 0.12 0.12 0.13 0.13 0.14 0.14 0.14 0.14 0.14 0.15 0.14 0.14 0.14 0.14 0.14 0.14 0.14 0.14 0.15 0.16 0.17 0.18 0.18 0.18 0.19 0.19 0.20 0.20 0.20 0.21 0.21 0.20
0.14 0.14 0.13 0.13 0.13 0.12 0.12 0.12 0.12 0.12 0.12 0.12 0.12 0.12 0.12 0.11 0.11 0.10 0.09 0.08 0.08 0.08 0.08 0.09 0.09 0.09 0.10 0.11 0.11 0.12 0.13 0.12 0.12 0.11 0.11 0.11 0.11 0.11 0.11 0.10 0.10 0.10 0.10 0.10 0.10 0.10 0.10 0.10 0.11 0.11 0.11 0.11 0.12 0.12 0.12 0.13 0.13 0.14 0.14 0.14 0.14 0.14 0.14 0.14 0.14 0.14 0.14 0.14 0.14 0.14 0.14 0.15 0.15 0.16 0.18 0.18 0.18 0.19 0.20 0.20 0.21 0.21 0.20 0.20 0.21
0.13 0.13 0.13 0.13 0.13 0.12 0.12 0.12 0.12 0.12 0.11 0.11 0.11 0.12 0.11 0.11 0.10 0.09 0.08 0.08 0.08 0.08 0.09 0.09 0.09 0.10 0.10 0.11 0.11 0.12 0.12 0.11 0.11 0.11 0.11 0.11 0.11 0.10 0.10 0.10 0.10 0.10 0.10 0.10 0.10 0.10 0.11 0.11 0.11 0.11 0.11 0.11 0.12 0.12 0.12 0.13 0.13 0.14 0.14 0.14 0.14 0.14 0.14 0.14 0.14 0.14 0.14 0.14 0.14 0.14 0.14 0.14 0.15 0.16 0.17 0.18 0.18 0.19 0.20 0.20 0.21 0.21 0.21 0.21 0.21
0.13 0.13 0.13 0.13 0.12 0.12 0.12 0.12 0.12 0.11 0.11 0.11 0.11 0.11 0.11 0.10 0.09 0.09 0.08 0.08 0.08 0.09 0.09 0.09 0.10 0.10 0.11 0.11 0.13 0.13 0.12 0.11 0.11 0.11 0.11 0.10 0.10 0.10 0.10 0.10 0.10 0.10 0.10 0.11 0.11 0.11 0.11 0.11 0.11 0.11 0.11 0.12 0.12 0.12 0.12 0.13 0.13 0.14 0.14 0.14 0.14 0.14 0.14 0.14 0.15 0.15 0.15 0.15 0.15 0.14 0.14 0.14 0.15 0.15 0.15 0.17 0.18 0.19 0.20 0.20 0.20 0.21 0.21 0.22 0.22
0.13 0.13 0.13 0.12 0.12 0.12 0.12 0.12 0.11 0.11 0.11 0.11 0.11 0.11 0.10 0.10 0.09 0.08 0.08 0.08 0.09 0.09 0.09 0.09 0.10 0.11 0.11 0.12 0.13 0.12 0.11 0.11 0.11 0.10 0.10 0.10 0.10 0.10 0.10 0.10 0.10 0.10 0.10 0.10 0.11 0.11 0.11 0.11 0.11 0.11 0.11 0.12 0.12 0.12 0.12 0.13 0.13 0.13 0.14 0.14 0.14 0.14 0.14 0.14 0.15 0.15 0.15 0.15 0.15 0.15 0.15 0.15 0.15 0.15 0.16 0.16 0.17 0.18 0.19 0.20 0.20 0.20 0.21 0.21 0.21
0.13 0.13 0.13 0.12 0.12 0.12 0.12 0.12 0.11 0.11 0.11 0.11 0.11 0.10 0.10 0.09 0.09 0.08 0.08 0.09 0.09 0.09 0.09 0.10 0.10 0.11 0.12 0.12 0.12 0.11 0.11 0.10 0.10 0.10 0.10 0.10 0.10 0.10 0.10 0.10 0.10 0.10 0.10 0.10 0.10 0.11 0.11 0.11 0.11 0.12 0.12 0.12 0.12 0.12 0.13 0.13 0.13 0.13 0.14 0.14 0.14 0.14 0.14 0.14 0.14 0.15 0.15 0.15 0.15 0.15 0.15 0.15 0.15 0.16 0.16 0.16 0.17 0.17 0.18 0.19 0.19 0.20 0.20 0.20 0.20
0.13 0.13 0.12 0.12 0.12 0.12 0.12 0.11 0.11 0.11 0.11 0.10 0.10 0.09 0.09 0.09 0.08 0.09 0.09 0.09 0.09 0.09 0.09 0.10 0.11 0.12 0.12 0.11 0.11 0.10 0.10 0.10 0.10 0.10 0.10 0.10 0.10 0.10 0.10 0.10 0.10 0.10 0.10 0.10 0.10 0.10 0.10 0.11 0.11 0.11 0.12 0.12 0.12 0.13 0.13 0.13 0.14 0.14 0.13 0.14 0.14 0.14 0.14 0.14 0.14 0.14 0.14 0.14 0.15 0.15 0.15 0.15 0.15 0.16 0.16 0.16 0.16 0.16 0.17 0.17 0.18 0.18 0.19 0.19 0.19
0.13 0.12 0.12 0.12 0.12 0.12 0.11 0.11 0.11 0.10 0.10 0.10 0.09 0.09 0.08 0.08 0.08 0.08 0.08 0.08 0.09 0.09 0.10 0.10 0.11 0.12 0.11 0.11 0.10 0.10 0.10 0.10 0.10 0.10 0.10 0.10 0.10 0.10 0.10 0.10 0.10 0.10 0.09 0.09 0.10 0.10 0.10 0.10 0.10 0.11 0.11 0.11 0.12 0.12 0.13 0.13 0.14 0.14 0.14 0.14 0.14 0.14 0.14 0.14 0.15 0.15 0.15 0.14 0.14 0.14 0.15 0.15 0.15 0.15 0.16 0.16 0.16 0.16 0.16 0.16 0.17 0.17 0.18 0.18 0.18
0.13 0.13 0.12 0.12 0.12 0.11 0.11 0.10 0.10 0.10 0.09 0.09 0.08 0.08 0.08 0.08 0.08 0.08 0.08 0.09 0.09 0.10 0.10 0.11 0.11 0.11 0.10 0.10 0.10 0.10 0.10 0.10 0.10 0.10 0.10 0.09 0.09 0.09 0.10 0.10 0.10 0.10 0.09 0.09 0.10 0.10 0.10 0.10 0.10 0.10 0.10 0.11 0.11 0.12 0.12 0.13 0.14 0.14 0.15 0.15 0.14 0.15 0.15 0.15 0.16 0.15 0.15 0.15 0.14 0.15 0.15 0.15 0.15 0.15 0.16 0.16 0.16 0.16 0.16 0.16 0.16 0.16 0.16 0.17 0.17
0.12 0.12 0.12 0.12 0.11 0.11 0.10 0.10 0.09 0.09 0.08 0.08 0.08 0.08 0.08 0.08 0.08 0.08 0.09 0.09 0.09 0.10 0.11 0.11 0.11 0.10 0.10 0.10 0.10 0.10 0.10 0.10 0.09 0.09 0.09 0.09 0.09 0.09 0.09 0.09 0.09 0.09 0.09 0.09 0.09 0.09 0.09 0.09 0.09 0.10 0.10 0.10 0.11 0.11 0.12 0.12 0.13 0.13 0.14 0.15 0.15 0.15 0.15 0.16 0.16 0.16 0.15 0.15 0.15 0.15 0.15 0.15 0.15 0.15 0.16 0.16 0.16 0.16 0.16 0.16 0.16 0.16 0.16 0.16 0.16
0.12 0.11 0.11 0.11 0.10 0.10 0.09 0.09 0.08 0.08 0.08 0.08 0.07 0.08 0.08 0.08 0.08 0.08 0.09 0.09 0.10 0.10 0.11 0.11 0.11 0.10 0.10 0.10 0.10 0.09 0.09 0.09 0.09 0.09 0.09 0.09 0.09 0.09 0.09 0.09 0.09 0.09 0.09 0.09 0.09 0.09 0.09 0.09 0.09 0.10 0.10 0.10 0.10 0.10 0.11 0.12 0.12 0.12 0.13 0.14 0.14 0.15 0.16 0.16 0.16 0.16 0.16 0.16 0.15 0.15 0.15 0.15 0.15 0.15 0.15 0.15 0.15 0.15 0.15 0.15 0.16 0.16 0.16 0.16 0.16
0.10 0.10 0.09 0.09 0.09 0.08 0.08 0.08 0.08 0.07 0.07 0.07 0.07 0.07 0.08 0.08 0.08 0.08 0.09 0.09 0.10 0.11 0.11 0.10 0.10 0.10 0.10 0.09 0.09 0.09 0.09 0.09 0.09 0.09 0.09 0.09 0.09 0.09 0.09 0.09 0.09 0.09 0.09 0.09 0.09 0.09 0.09 0.09 0.09 0.10 0.10 0.10 0.10 0.10 0.10 0.11 0.12 0.12 0.12 0.13 0.14 0.14 0.15 0.16 0.16 0.16 0.16 0.16 0.16 0.15 0.15 0.15 0.15 0.15 0.15 0.15 0.15 0.15 0.15 0.15 0.15 0.15 0.16 0.16 0.15
0.08 0.08 0.08 0.08 0.08 0.08 0.08 0.08 0.08 0.07 0.07 0.07 0.07 0.07 0.08 0.08 0.08 0.08 0.09 0.10 0.10 0.11 0.11 0.10 0.09 0.09 0.09 0.09 0.09 0.09 0.09 0.09 0.09 0.09 0.09 0.09 0.09 0.09 0.09 0.09 0.09 0.09 0.09 0.09 0.09 0.09 0.09 0.09 0.09 0.09 0.09 0.10 0.10 0.10 0.10 0.11 0.11 0.12 0.12 0.13 0.13 0.14 0.14 0.15 0.16 0.16 0.16 0.16 0.15 0.15 0.15 0.15 0.15 0.15 0.15 0.15 0.15 0.15 0.15 0.15 0.15 0.15 0.15 0.15 0.15
0.08 0.08 0.08 0.08 0.08 0.08 0.08 0.08 0.08 0.08 0.08 0.08 0.08 0.08 0.08 0.08 0.08 0.08 0.09 0.10 0.10 0.10 0.09 0.09 0.09 0.09 0.09 0.09 0.08 0.08 0.08 0.08 0.08 0.08 0.08 0.09 0.09 0.09 0.09 0.09 0.09 0.09 0.09 0.09 0.09 0.09 0.09 0.09 0.09 0.09 0.09 0.09 0.09 0.09 0.10 0.10 0.11 0.11 0.12 0.12 0.13 0.13 0.14 0.14 0.15 0.15 0.15 0.15 0.15 0.15 0.15 0.14 0.14 0.14 0.14 0.14 0.14 0.14 0.14 0.14 0.14 0.14 0.14 0.14 0.14
Wind_Speed
39 39 39 39 39 39 39 40 40 40 40 40 41 41 41 42 42 43 44 44 45 46 46 47 47 48 49 49 50 50 51 51 52 52 52 53 53 53 54 54 54 54 55 55 55 55 56 56 56 56 56 57 57 58 58 58 58 59 59 59 60 60 61 62 64 66 65 63 62 62 60 60 59 58 57 57 56 56 56 55 55 54 54 55 55
39 39 39 39 39 39 39 40 40 40 40 41 41 42 42 43 43 44 44 45 46 46 47 48 48 49 49 50 50 51 51 52 52 53 53 53 54 54 54 55 55 56 56 56 56 56 57 57 58 58 58 58 59 59 59 59 60 61 61 61 62 62 62 63 65 66 67 66 65 64 63 62 62 61 59 59 58 58 57 57 57 56 56 56 56
40 40 40 40 40 40 40 40 40 41 41 41 42 42 43 43 44 44 45 46 46 47 48 48 49 50 50 51 51 52 52 53 53 53 54 54 54 55 55 55 56 56 56 57 57 57 58 58 59 59 59 60 60 60 60 61 61 62 62 62 63 64 64 64 66 67 69 68 67 66 65 64 63 63 62 61 61 60 60 59 59 58 58 57 57
40 40 40 40 40 40 41 41 41 41 41 42 42 43 43 44 45 45 46 47 47 48 49 49 50 50 51 51 52 52 52 53 53 53 54 54 54 55 55 55 56 56 57 57 58 58 59 59 59 60 60 61 61 61 61 62 62 63 64 64 64 65 65 65 66 68 69 70 69 68 67 67 66 65 64 63 63 62 62 61 61 60 60 59 59
40 40 40 41 41 41 41 41 42 42 42 43 43 44 44 45 45 46 47 47 48 49 50 50 51 51 51 51 51 52 52 52 52 52 53 53 54 54 55 55 55 56 57 57 58 58 59 60 60 60 61 62 62 62 62 63 63 64 65 65 65 66 67 67 67 68 69 71 71 70 69 69 68 67 65 65 65 64 64 63 62 62 61 61 60
41 41 41 41 42 42 42 42 42 43 43 43 44 44 45 45 46 47 47 48 49 49 50 50 50 50 50 50 50 51 51 51 51 51 52 52 53 53 54 54 55 55 56 57 57 58 59 60 60 61 61 62 63 63 64 64 64 65 65 66 66 66 67 68 68 69 70 71 72 72 71 70 70 69 67 66 66 66 65 65 64 63 63 62 62
42 42 42 42 42 42 42 43 43 43 44 44 44 45 45 46 46 47 48 48 49 49 49 49 49 50 50 50 50 50 51 51 51 52 52 52 53 53 54 54 55 56 56 57 57 58 58 59 60 60 61 62 63 63 64 64 65 65 66 66 66 67 67 68 68 69 70 71 72 72 71 71 70 70 69 67 67 67 67 66 66 65 64 64 63
42 42 43 43 43 43 43 43 43 44 44 44 44 45 46 46 47 48 48 48 49 49 49 49 50 50 50 50 50 51 51 51 52 52 53 53 54 54 55 55 56 56 57 57 57 58 59 59 60 60 61 61 62 63 63 63 64 64 65 65 65 66 67 67 68 68 69 70 71 72 71 71 71 71 70 69 68 68 68 67 67 67 66 65 65
43 43 43 43 43 43 43 43 44 44 44 44 45 46 47 47 48 48 49 49 49 49 50 50 50 50 50 50 50 51 51 51 52 52 53 53 54 54 55 55 56 57 57 58 58 58 59 59 60 60 61 62 62 62 63 63 63 63 63 63 63 64 65 66 67 68 68 69 70 71 71 71 71 70 70 69 69 69 69 68 68 69 68 67 67
43 43 43 43 43 43 43 43 44 44 45 45 46 47 47 48 48 48 49 49 49 49 50 50 50 50 50 50 50 50 50 51 52 52 53 53 54 54 55 55 56 56 57 58 58 58 59 59 60 60 61 62 62 62 62 62 62 62 62 62 62 63 63 64 65 65 66 67 69 69 70 72 71 70 70 70 70 70 70 69 69 70 69 68 68
43 43 43 43 43 43 43 44 44 45 46 46 47 47 47 48 48 48 48 49 49 49 49 49 49 49 49 50 50 50 50 51 51 52 52 53 53 53 54 54 55 55 56 56 57 57 57 58 58 59 59 60 60 61 61 61 61 61 62 62 62 62 63 63 64 64 64 65 66 67 69 70 71 70 70 71 70 70 70 70 70 70 69 69 68
43 44 43 43 43 44 44 45 45 46 46 47 47 47 47 47 47 47 48 48 48 48 48 48 49 49 49 49 49 49 49 50 50 51 51 52 52 52 53 53 53 53 54 55 55 56 56 56 56 56 57 57 57 57 57 58 58 59 59 60 60 60 61 62 63 63 64 64 65 66 67 68 69 68 68 68 69 69 69 70 70 70 70 70 69
44 44 44 44 44 44 45 46 46 46 46 46 46 46 46 46 46 47 47 47 48 48 48 48 48 48 48 48 48 48 48 49 50 50 51 51 52 52 52 52 52 53 53 54 54 54 55 55 55 54 54 54 54 54 54 55 55 55 56 56 56 57 58 59 60 61 61 62 64 65 65 66 66 67 66 66 68 69 69 70 70 71 71 71 71
44 44 44 44 45 45 46 46 46 46 46 45 45 45 45 45 46 46 47 47 47 47 47 47 47 47 47 47 48 48 48 49 50 50 50 51 51 51 51 51 52 52 53 53 53 54 54 54 54 53 53 52 52 52 52 52 52 52 53 53 53 54 54 55 56 57 57 58 59 61 62 62 63 65 65 66 68 69 69 70 70 70 71 72 73
44 44 45 45 45 46 46 45 45 45 45 45 44 44 45 45 45 46 46 46 46 46 46 46 46 47 47 47 47 48 48 49 49 50 50 50 51 51 51 51 51 52 52 52 52 53 53 52 52 52 51 51 50 51 51 50 50 51 51 51 51 52 52 52 53 53 53 54 55 56 57 57 58 60 60 61 64 65 67 68 69 70 71 72 73
45 45 45 45 45 45 45 45 44 44 44 44 44 44 44 45 45 45 45 45 45 45 46 46 46 47 47 47 47 48 48 48 49 49 49 50 50 50 50 51 51 51 51 52 52 52 51 51 50 50 50 49 49 50 49 49 49 49 49 50 50 51 50 50 50 51 51 51 51 52 53 53 54 55 55 56 58 60 62 65 66 68 69 71 72
45 45 44 44 44 44 44 44 44 43 43 43 43 44 44 44 44 45 45 45 45 45 46 46 46 47 47 47 47 47 47 48 48 49 49 50 50 50 50 51 51 51 52 51 51 50 49 49 49 48 48 48 48 48 48 48 48 48 49 49 49 49 48 47 48 48 48 49 49 49 50 50 51 52 52 52 54 55 57 60 62 63 65 66 67
44 44 43 43 43 43 43 43 43 42 42 43 43 43 43 44 44 44 44 45 45 45 46 46 46 46 47 47 47 47 47 47 48 49 49 50 50 50 50 51 52 52 52 51 50 49 48 48 48 48 47 47 47 48 48 47 47 47 47 47 47 46 45 45 45 46 46 47 47 47 48 48 48 48 48 49 50 50 52 55 56 58 61 63 64
43 43 42 42 42 42 42 42 41 41 42 42 42 43 43 43 44 44 45 45 45 46 46 46 47 46 46 46 47 47 47 47 48 49 49 50 50 50 51 51 52 52 51 50 49 48 47 47 47 47 47 47 47 47 47 47 46 46 46 46 45 45 44 44 44 45 45 45 46 46 46 46 47 47 47 48 48 49 50 52 53 55 58 61 62
42 42 41 41 41 41 41 41 41 41 41 41 42 42 43 43 44 44 45 45 46 46 46 46 47 46 46 46 47 47 47 47 48 49 50 50 51 51 51 51 51 51 50 49 48 47 46 45 45 45 46 46 46 46 46 46 46 45 45 45 44 44 44 44 44 45 45 45 46 46 46 46 47 47 48 48 49 49 50 51 52 54 56 58 60
40 40 40 40 40 40 40 40 40 40 41 41 42 42 43 43 44 45 45 45 46 46 46 46 46 46 46 46 46 47 47 47 48 49 50 50 51 51 50 50 50 50 49 47 46 45 45 44 44 44 46 46 46 46 45 45 45 45 44 44 44 45 44 44 44 44 44 45 45 46 46 47 47 48 49 49 49 50 51 52 52 54 55 57 59
39 39 39 38 39 39 39 39 40 40 41 41 42 43 43 43 44 45 45 45 46 46 46 45 46 46 46 46 46 46 47 47 48 48 49 49 50 50 49 49 48 47 46 46 45 44 44 44 44 44 45 46 46 45 45 45 45 44 44 45 45 45 44 43 43 43 43 44 45 45 46 47 47 48 49 49 50 51 52 53 53 54 56 58 60
38 37 37 38 38 38 39 39 40 40 41 42 42 43 43 43 44 44 45 45 45 45 45 45 45 46 46 46 45 45 46 46 47 48 48 48 48 48 48 47 46 45 44 44 44 44 44 43 44 45 45 45 45 45 45 44 44 43 44 44 44 44 43 42 42 43 44 44 45 46 46 47 48 48 49 49 50 51 52 53 54 56 57 59 60
37 37 37 37 37 38 39 39 40 41 41 42 42 43 43 43 43 44 44 44 44 44 44 44 45 45 45 45 45 45 45 45 46 46 47 47 47 47 46 46 44 43 43 43 43 43 43 43 44 44 45 45 44 44 44 43 42 42 43 43 43 43 42 42 42 43 44 44 45 46 46 46 47 48 49 50 51 52 53 54 55 56 58 59 60
36 36 36 37 37 38 39 40 41 41 41 41 42 42 42 43 43 43 43 43 43 43 44 44 44 44 45 45 44 44 44 44 44 45 45 46 45 45 45 44 43 42 41 41 42 42 42 43 43 44 44 43 43 42 41 41 41 41 42 42 42 41 41 42 42 42 43 44 44 45 46 46 47 48 49 50 51 52 53 54 55 56 57 58 60
36 36 37 37 38 39 39 40 41 41 41 41 41 41 42 42 42 42 42 42 42 43 43 43 43 44 44 44 44 44 44 44 44 44 44 44 44 44 43 42 41 41 41 41 41 42 42 42 42 42 41 41 41 40 39 40 40 41 41 41 41 40 40 41 41 42 42 43 44 45 45 46 47 49 50 51 52 53 53 54 55 55 56 56 57
36 37 37 38 38 39 40 40 40 40 40 41 41 41 41 41 41 41 41 41 42 42 42 43 43 43 43 44 44 44 45 45 45 44 44 44 43 42 41 39 39 39 39 40 40 40 40 40 40 40 40 40 40 39 39 39 39 39 40 40 39 39 39 40 40 40 41 42 43 45 46 46 48 49 50 51 52 53 53 53 54 54 53 54 55
36 37 37 38 39 39 40 40 40 40 40 40 40 40 40 40 40 40 41 41 41 42 42 42 43 43 44 44 45 46 46 46 45 44 44 43 42 41 39 38 38 38 38 39 39 38 39 39 39 39 39 39 38 37 37 37 37 38 38 39 39 38 38 38 39 39 40 41 43 44 45 46 48 49 50 51 51 51 51 51 52 51 51 51 51
37 37 38 38 39 39 40 40 40 40 40 40 40 40 40 40 40 40 40 40 41 42 42 43 43 44 45 45 46 46 46 45 44 44 43 42 41 39 38 37 37 38 38 39 38 38 38 38 38 38 37 37 37 37 37 37 37 37 37 38 37 37 37 37 38 39 40 41 42 44 45 46 48 49 50 50 50 50 49 48 48 47 46 47 47
37 37 38 38 39 39 39 39 39 39 39 39 39 39 39 39 40 40 40 41 42 43 43 44 44 45 45 45 46 46 46 45 44 43 42 41 39 38 37 38 38 38 38 38 38 37 37 37 36 36 36 36 36 36 36 36 36 37 37 37 37 37 36 36 37 38 39 40 42 43 45 46 47 48 48 48 48 47 45 44 43 42 42 42 43
37 38 38 38 39 39 39 39 39 39 39 39 39 39 39 39 39 40 41 41 42 43 44 45 45 46 46 46 45 45 45 44 43 42 40 39 37 37 37 37 37 37 37 37 36 35 35 35 35 35 35 35 35 35 35 36 36 37 37 37 36 36 36 35 36 37 38 40 41 43 43 44 45 45 45 45 44 42 40 39 39 39 40 40 41
37 37 38 38 38 38 38 39 39 38 38 38 38 39 39 39 39 40 40 41 42 43 44 45 45 46 45 45 45 44 43 42 41 40 38 36 35 35 35 36 35 35 35 34 33 33 34 34 34 34 34 34 35 35 35 36 36 37 37 37 36 35 35 35 36 37 39 40 41 42 42 42 42 42 41 40 39 37 36 36 36 36 37 37 38
37 37 37 37 37 38 38 38 38 38 38 38 38 39 39 40 40 40 40 41 42 43 44 44 44 44 44 44 43 42 41 40 39 37 35 34 33 33 33 33 33 33 32 32 32 32 33 33 33 33 34 34 34 35 35 35 36 36 36 36 36 35 35 35 36 37 39 40 40 41 41 40 40 39 38 37 35 34 34 34 34 34 34 34 35
37 37 37 37 37 37 38 38 38 38 38 38 38 39 39 40 40 41 42 42 42 43 43 43 43 43 43 42 42 41 40 38 36 34 32 31 31 31 31 31 31 30 30 30 30 31 32 32 33 33 33 34 34 34 35 35 35 35 35 35 35 35 34 35 36 37 38 39 39 39 40 39 38 37 36 34 33 33 32 32 32 32 32 31 31
37 37 37 37 37 37 37 38 38 38 38 38 39 39 40 40 40 41 42 43 43 43 43 42 42 42 42 41 40 39 37 35 33 31 30 29 29 29 29 28 28 29 29 29 30 30 31 31 32 33 33 34 34 34 34 35 35 35 34 34 33 33 34 35 36 37 37 38 38 38 38 38 37 35 34 33 32 31 30 31 31 31 31 30 29
37 38 38 38 38 37 37 38 38 38 38 39 39 40 40 40 41 42 42 43 43 43 43 42 41 41 40 38 37 36 34 32 30 28 27 27 27 27 27 27 27 28 28 29 29 30 30 31 32 33 33 34 34 34 34 34 34 33 33 32 32 32 33 34 35 35 36 36 36 36 36 36 35 34 33 32 31 30 29 29 29 30 30 29 28
38 38 38 38 38 38 38 38 38 38 39 40 40 41 41 41 41 42 42 42 42 42 42 41 40 39 37 35 34 32 30 29 27 26 26 26 26 25 25 26 26 27 28 28 29 29 30 31 32 32 33 34 34 34 33 33 32 32 31 31 31 31 32 33 33 34 35 35 34 34 34 33 32 31 30 30 29 29 28 28 28 28 28 28 27
38 38 38 38 38 38 38 38 38 39 40 40 41 41 42 42 42 42 42 42 42 41 41 40 39 37 35 33 30 28 27 26 25 24 24 24 24 24 25 25 26 26 27 27 28 29 30 31 31 32 33 33 33 33 32 31 31 30 30 30 30 30 31 32 32 33 33 33 32 32 32 30 29 28 27 27 27 27 27 27 27 26 26 25 25
38 39 39 39 39 39 39 39 39 40 40 41 41 42 42 42 41 41 41 41 40 40 39 38 36 35 32 30 27 26 24 24 23 23 23 23 23 24 24 25 25 26 26 27 28 28 29 30 31 32 32 32 32 31 31 30 29 29 29 28 29 29 30 30 31 31 31 31 31 30 30 29 28 26 25 25 25 25 25 25 25 24 23 23 22
39 39 39 40 40 40 39 40 40 41 41 42 42 42 41 41 40 40 40 39 39 38 37 36 34 32 29 26 24 23 22 22 22 22 23 23 23 23 23 24 25 25 26 27 27 28 29 30 30 31 31 31 31 30 29 29 28 28 27 27 27 28 28 29 29 30 30 30 30 29 28 27 27 26 24 24 23 23 23 23 22 21 21 21 20
40 40 40 40 41 40 40 41 41 42 42 42 42 41 40 39 39 38 38 38 37 37 35 34 31 28 25 24 23 22 21 21 21 21 22 22 23 23 23 23 24 25 26 26 27 28 28 29 30 30 30 30 30 29 29 28 27 27 26 26 26 27 28 28 28 29 29 29 29 28 27 26 25 25 24 23 23 22 21 20 20 19 19 18 18
41 41 41 41 41 41 41 42 42 42 42 42 41 40 39 38 38 37 37 36 36 35 33 31 28 25 23 22 22 21 20 20 20 21 21 21 22 22 22 23 24 24 25 26 26 27 28 28 29 29 30 30 30 29 28 27 26 26 26 25 26 27 27 28 28 29 29 28 28 27 26 25 25 24 23 23 22 21 19 18 18 17 17 17 17
42 42 42 42 42 42 42 42 42 42 42 41 39 38 37 37 36 36 35 35 34 33 31 28 25 23 21 21 20 20 20 20 20 20 20 21 21 22 22 23 23 24 25 25 26 26 27 28 28 28 29 29 30 30 28 27 26 25 25 25 26 26 27 28 28 28 28 27 27 26 25 25 24 23 22 21 20 20 19 17 17 16 16 16 16
43 43 43 43 43 43 43 42 42 42 41 40 38 37 36 36 35 35 34 33 32 30 28 25 23 21 20 20 19 19 19 20 20 20 20 20 21 22 22 23 23 24 24 25 26 26 26 27 27 28 28 29 29 29 28 27 26 25 25 25 25 26 27 27 28 28 27 26 26 25 24 23 23 22 21 20 19 18 17 17 16 16 15 15 15
44 44 44 44 44 44 43 42 42 41 40 38 37 36 35 35 34 33 32 31 30 28 25 22 21 20 19 19 19 19 20 20 20 20 20 21 21 22 22 23 24 24 24 25 25 26 26 26 27 27 28 28 28 28 28 28 26 25 24 25 25 25 26 27 27 27 26 25 24 23 23 22 22 21 20 19 18 17 16 16 16 16 15 16 16
45 45 45 45 44 44 43 42 41 40 39 37 36 35 35 34 33 32 31 29 27 25 23 21 20 19 19 19 19 19 20 20 20 20 20 21 21 22 23 23 24 24 25 25 25 26 26 26 26 27 26 26 27 27 27 27 27 25 25 25 25 25 26 26 27 26 26 25 23 22 22 22 21 20 19 18 17 16 15 15 15 15 15 15 16
46 46 46 45 45 44 43 42 41 39 37 36 35 35 34 33 32 30 29 27 25 23 21 20 19 19 19 19 19 19 20 20 20 20 21 21 22 22 23 24 24 24 25 25 25 25 26 26 26 26 26 25 26 26 26 27 26 26 25 25 25 26 27 27 26 26 25 24 23 22 22 22 21 19 18 16 15 15 14 14 13 14 14 15 15
47 46 46 45 45 44 43 41 40 38 37 36 35 35 34 32 30 29 27 25 23 21 20 19 19 19 19 19 20 20 20 20 20 21 21 22 22 23 23 24 24 24 25 25 25 25 26 26 26 25 25 25 25 25 25 26 26 25 25 25 26 26 27 27 26 26 25 24 23 22 22 21 20 19 18 16 15 14 14 13 13 13 12 13 13
47 47 46 45 44 43 42 40 39 38 37 36 35 34 32 30 28 27 25 23 21 20 19 19 19 19 19 20 20 20 20 20 21 21 22 22 23 23 24 24 24 25 25 25 25 26 26 26 26 25 25 25 25 25 25 25 25 25 25 25 26 27 27 26 26 25 25 24 23 21 21 20 20 19 18 16 15 14 13 13 12 11 11 11 11
47 47 46 45 44 42 41 39 38 37 36 34 33 32 30 28 26 24 22 21 20 19 19 19 19 19 19 20 20 20 20 21 21 22 22 23 23 23 24 24 25 25 25 25 25 26 26 26 25 25 24 25 25 25 25 24 24 24 24 25 26 26 26 26 25 25 25 24 22 21 20 19 19 18 17 16 15 14 13 12 11 10 9 9 9
46 45 44 43 42 41 39 38 36 35 34 32 31 29 27 25 24 22 21 20 19 19 19 19 19 19 19 20 20 20 20 21 21 22 22 23 23 24 24 25 25 26 26 26 26 26 26 26 25 25 25 25 25 25 25 24 24 24 24 24 25 25 25 25 24 24 24 23 22 21 20 19 18 17 17 16 15 14 13 12 11 9 8 7 8
Wind_Direction
281 281 282 283 283 284 285 285 286 286 286 287 287 288 288 289 289 289 289 289 289 289 289 289 289 289 289 289 289 289 288 288 288 288 287 287 286 286 286 285 285 284 284 284 283 283 283 282 282 281 280 280 279 278 277 277 276 275 274 274 273 272 271 270 269 269 268 268 268 268 268 268 267 267 266 265 265 265 264 264 264 263 263 262 262
280 281 282 282 283 284 285 286 286 287 288 288 289 289 289 290 290 290 290 290 290 290 290 290 290 289 289 289 289 289 289 288 288 288 287 287 287 287 286 286 285 285 284 284 284 283 283 283 282 282 281 280 280 279 278 277 276 275 274 274 273 272 271 270 270 269 269 268 268 268 267 267 267 266 266 265 265 264 264 263 263 263 262 262 261
281 281 282 283 284 285 286 287 288 288 289 289 289 290 290 290 290 290 290 290 290 291 291 290 290 290 290 289 289 289 289 289 289 288 288 288 287 287 287 286 286 285 285 285 284 284 283 283 283 282 281 281 280 279 278 277 276 275 275 274 273 272 272 271 270 270 269 269 268 268 268 267 266 266 265 265 264 264 263 263 262 262 262 261 261
281 282 283 284 285 286 287 287 288 289 289 289 290 290 291 291 291 291 291 291 291 292 292 291 291 291 290 290 290 289 289 289 289 289 288 288 287 287 287 287 286 286 285 285 285 284 284 283 283 283 282 281 280 280 279 278 277 276 275 274 273 273 272 271 270 270 269 269 268 267 267 267 266 265 265 265 264 263 263 262 262 261 261 261 260
281 282 283 284 285 286 287 287 288 288 289 289 290 291 292 292 292 292 292 292 292 292 292 292 292 291 291 290 290 290 290 290 289 289 289 288 288 288 287 287 287 286 286 285 285 285 284 284 283 283 282 282 281 280 280 279 278 277 276 275 274 273 272 271 270 270 269 268 268 267 267 267 266 265 265 265 264 263 263 262 261 261 260 260 260
282 283 284 284 285 286 286 287 287 288 289 290 291 292 292 293 293 293 293 293 293 293 293 293 292 292 291 291 291 291 291 290 290 290 289 289 289 288 288 287 287 287 286 286 285 285 285 284 284 283 283 282 282 281 280 280 279 278 277 276 275 274 273 272 271 270 269 268 268 267 266 266 266 265 264 264 264 263 263 262 261 260 260 260 259
282 283 283 284 285 285 286 286 287 288 289 290 291 292 293 294 294 294 294 294 294 293 293 293 293 293 292 292 292 292 291 291 291 290 290 290 289 289 288 288 287 287 287 286 286 286 285 285 284 284 283 283 282 282 281 280 279 278 277 276 275 274 273 272 271 270 269 269 268 267 266 265 265 265 264 264 263 262 262 262 261 260 260 259 259
281 282 283 284 284 285 285 286 287 288 290 291 292 293 294 295 295 295 295 295 294 294 294 294 293 293 292 292 292 292 292 291 291 291 291 290 290 289 289 289 288 288 287 287 287 286 286 285 285 284 284 283 283 282 281 281 280 278 277 276 275 274 273 272 271 270 270 269 268 267 266 265 264 264 264 263 263 262 262 261 261 260 260 259 258
281 282 283 283 284 284 285 286 287 289 290 291 292 293 294 295 296 296 295 295 295 294 294 294 293 293 293 293 293 292 292 292 292 292 291 291 291 290 290 289 289 289 288 288 287 287 287 286 286 285 285 284 284 283 282 281 280 279 278 276 275 274 273 272 271 270 270 269 268 267 266 266 265 264 263 263 262 262 262 261 260 260 259 259 258
281 282 282 283 284 284 285 286 287 289 290 291 292 293 294 295 296 296 295 295 295 294 294 294 293 293 293 293 293 293 293 293 293 293 293 292 292 291 291 290 290 290 289 289 289 288 288 287 287 286 286 286 285 284 283 282 280 279 278 277 275 274 273 272 271 270 270 269 268 267 267 266 265 264 264 263 262 262 261 261 260 260 260 259 258
281 281 282 283 283 284 285 286 287 289 290 291 292 293 294 295 295 295 295 295 295 295 294 294 294 294 293 293 294 293 293 293 294 294 294 294 293 292 292 291 291 291 291 290 290 289 289 288 288 287 287 287 286 285 284 282 281 280 279 277 276 275 273 273 272 271 270 270 269 268 267 266 265 264 264 263 262 261 261 260 260 260 259 258 258
281 281 282 282 282 283 284 286 288 289 290 291 292 293 293 294 295 295 296 296 295 295 295 295 295 294 294 294 294 294 294 294 295 295 295 295 294 294 293 293 293 293 292 292 291 291 290 290 289 289 288 288 287 285 284 283 282 281 280 278 277 276 274 273 272 272 271 270 269 268 267 267 266 265 264 263 262 261 261 260 259 258 258 257 257
280 280 281 281 282 283 285 286 288 289 290 291 291 292 293 294 295 295 296 296 296 296 295 295 295 295 295 295 295 295 295 296 296 296 296 296 296 295 295 294 294 294 294 293 293 293 292 292 291 290 290 289 288 287 285 284 283 282 281 280 279 277 276 275 273 273 272 271 270 269 268 267 267 265 264 264 263 262 261 260 259 258 257 256 256
280 280 280 281 282 284 285 286 287 288 289 290 291 292 293 294 295 295 296 296 296 296 296 295 295 296 296 296 296 296 296 296 297 297 297 297 297 296 296 296 295 295 295 295 294 294 294 293 293 292 291 290 289 288 287 285 284 283 282 280 279 278 277 276 274 273 272 271 270 270 269 268 268 266 265 264 264 263 261 261 259 258 258 257 256
280 280 281 282 283 284 285 286 287 288 289 290 291 292 293 294 295 295 295 296 296 296 296 296 296 296 297 297 297 297 297 297 298 298 298 298 298 297 297 296 296 296 296 296 295 295 295 294 293 293 292 291 290 289 288 287 285 284 283 281 280 279 278 277 275 274 272 271 270 270 270 270 269 268 267 265 264 263 262 261 260 260 259 258 257
281 281 281 282 283 284 285 286 287 288 289 290 291 292 293 294 295 295 295 296 296 296 296 297 297 297 297 297 297 297 297 298 298 298 298 298 298 297 297 297 296 296 296 296 296 296 295 294 294 293 292 291 290 290 289 288 286 285 284 283 282 281 279 278 276 274 272 271 271 270 271 271 271 270 269 267 265 264 263 262 261 260 260 258 257
281 282 282 282 283 284 285 285 286 287 288 290 291 292 293 294 295 295 296 296 297 297 297 297 298 298 298 298 298 298 298 298 299 299 299 299 298 297 297 297 297 297 297 297 297 296 295 294 294 293 292 291 291 291 290 289 287 285 285 284 283 281 280 278 277 275 273 272 272 271 271 271 272 271 270 269 267 266 265 263 262 261 261 259 258
282 282 282 283 284 284 285 285 286 287 288 290 291 292 294 295 295 296 296 297 297 297 298 298 298 298 298 298 298 298 298 299 299 299 299 299 298 298 298 298 298 298 298 297 296 296 295 294 293 293 292 292 292 292 290 289 287 286 286 285 283 281 279 278 277 275 274 273 272 272 272 272 272 272 272 271 270 268 267 265 264 263 262 261 260
283 283 283 283 284 284 284 285 286 287 288 290 291 293 294 295 295 296 297 297 297 298 298 298 298 298 298 298 299 299 299 299 299 300 300 299 299 298 298 298 298 298 297 297 296 295 294 294 294 293 293 293 293 292 291 289 288 286 286 285 283 281 280 279 277 275 274 273 272 272 272 272 273 273 272 272 271 270 268 268 266 265 264 262 262
283 283 283 284 284 284 284 285 286 287 289 290 292 293 294 295 296 296 297 297 298 298 298 298 298 298 298 299 299 299 299 299 300 300 300 300 299 299 299 298 298 297 297 296 295 295 294 294 294 294 294 294 294 293 291 289 288 287 286 286 284 283 282 280 278 276 274 273 272 272 272 272 272 272 272 272 271 270 269 268 267 266 265 264 262
283 283 283 284 284 284 285 285 287 288 289 291 292 293 294 295 296 297 297 298 298 298 298 298 298 298 299 299 299 299 299 299 300 300 300 300 300 299 299 299 298 297 296 295 295 294 294 294 294 295 295 294 294 293 291 290 288 287 287 286 285 284 283 281 279 277 276 275 274 273 273 273 273 273 273 272 272 271 270 269 268 267 265 264 263
283 283 283 284 284 285 285 286 288 289 290 292 293 294 295 296 296 297 297 298 298 298 298 298 299 299 299 299 299 299 300 300 300 301 301 301 301 300 300 299 298 297 296 295 294 294 294 295 295 295 295 294 293 293 292 290 289 288 287 287 287 286 284 282 280 279 278 277 276 275 275 275 275 274 274 273 273 272 271 270 269 268 267 265 264
284 283 284 284 285 285 286 287 288 290 291 292 293 294 295 296 297 297 298 298 298 298 299 299 299 299 300 300 300 300 301 301 301 302 302 302 302 302 301 300 299 297 296 295 295 295 295 295 295 295 295 294 293 293 292 290 290 289 289 289 288 287 286 284 282 281 280 279 278 277 277 277 277 276 276 275 275 274 273 272 271 270 269 267 265
284 284 284 285 285 286 287 288 289 290 291 292 293 294 295 296 297 297 298 298 299 299 299 299 300 300 300 301 301 301 302 302 302 303 303 303 303 303 302 301 299 298 297 296 296 296 296 296 296 296 295 295 294 293 292 291 291 290 290 290 289 288 287 285 284 283 282 281 280 280 279 279 278 278 277 277 277 276 275 274 273 272 270 268 267
284 284 285 285 286 287 288 289 290 291 291 292 293 294 295 296 297 298 298 298 299 299 300 300 300 301 301 301 302 302 303 303 303 304 304 304 304 304 303 301 300 299 297 296 296 296 297 297 297 296 296 295 295 294 293 292 291 291 291 290 289 289 288 287 286 285 284 283 283 282 281 281 280 279 279 279 278 278 277 276 274 273 271 270 268
285 285 285 286 287 288 289 290 290 291 291 292 293 294 295 296 297 298 298 299 299 300 300 301 301 301 301 302 302 303 303 304 304 304 304 304 304 304 303 302 301 299 298 297 297 298 299 299 298 297 296 296 295 294 293 292 292 292 292 291 291 290 289 288 287 286 286 285 284 284 284 283 283 282 282 281 280 279 279 278 276 274 272 270 268
285 286 286 287 288 289 290 290 291 291 292 292 293 294 295 296 297 298 298 299 299 300 300 301 301 301 301 302 302 303 303 304 304 304 304 304 304 304 303 301 300 300 299 298 299 300 300 300 299 298 298 297 296 295 294 293 293 293 294 293 292 291 290 289 288 287 287 286 286 286 286 286 285 285 284 283 282 281 280 278 276 275 273 271 268
286 287 287 288 289 290 290 290 291 291 292 293 293 294 295 296 297 297 298 299 299 300 300 301 301 301 302 302 302 303 303 304 304 304 303 303 303 303 302 301 301 300 300 300 300 301 301 300 300 300 300 299 298 297 296 295 294 294 294 294 293 292 291 290 289 289 288 288 287 287 288 288 287 286 286 284 283 282 280 278 276 275 273 270 268
287 288 288 289 290 290 290 290 291 291 292 292 293 294 295 295 296 297 298 298 299 300 300 301 301 301 302 302 303 303 303 304 304 303 303 302 302 301 301 301 301 301 301 302 302 302 301 302 302 302 302 302 301 300 298 297 296 296 295 295 294 293 292 291 291 290 290 290 290 290 290 290 290 289 288 286 284 283 281 278 276 275 272 269 267
288 289 289 290 290 290 291 291 291 291 291 292 293 294 294 295 296 297 298 299 299 299 300 300 301 302 302 303 303 303 303 304 304 303 302 302 301 301 301 301 302 302 302 303 303 303 303 304 304 304 304 303 302 301 300 299 299 298 297 296 295 294 293 292 292 292 292 292 292 293 293 293 292 292 290 288 286 284 281 277 275 273 272 270 268
289 290 290 290 290 291 291 291 291 291 291 292 293 294 295 295 296 297 298 299 300 300 300 301 301 302 302 303 303 303 303 303 303 303 302 302 301 301 301 302 303 303 304 304 304 304 305 305 305 305 305 304 304 303 302 302 301 300 299 298 296 295 294 293 293 294 295 295 295 295 295 295 295 294 293 291 288 284 279 276 274 273 272 270 268
290 291 291 291 291 291 292 292 292 291 291 292 293 294 295 296 297 298 299 300 301 302 302 302 302 303 303 304 304 304 303 304 303 303 302 301 301 301 303 304 305 306 306 306 306 306 306 306 306 307 307 306 306 305 304 303 302 301 300 299 297 296 295 295 296 297 298 298 297 297 297 297 297 296 295 292 288 283 279 277 275 273 272 270 268
292 293 293 293 292 292 292 292 292 292 292 292 293 294 295 296 297 299 300 301 302 302 303 303 303 304 304 304 304 304 304 304 303 302 301 301 302 304 305 307 308 308 308 308 307 307 308 308 309 309 309 309 308 307 306 305 304 303 301 300 298 296 296 297 298 299 299 299 299 299 299 299 298 296 295 292 288 284 281 278 276 274 272 270 270
293 294 294 294 294 293 293 293 292 292 292 292 293 293 294 296 297 298 300 301 302 303 304 304 304 305 305 304 304 304 304 304 302 302 302 302 304 306 307 308 309 310 310 309 309 310 310 311 312 312 312 311 310 309 308 307 306 305 303 301 299 297 297 299 300 300 300 301 301 300 300 299 298 296 294 292 289 285 282 279 276 274 273 272 271
293 294 295 295 294 294 294 293 293 292 292 292 293 293 294 295 297 298 299 301 302 303 304 304 305 305 305 304 304 304 304 303 301 301 303 304 305 307 309 310 312 313 312 312 312 312 312 313 314 314 314 313 312 311 310 309 308 307 305 303 301 300 300 301 302 302 302 302 302 302 301 300 298 295 293 291 288 285 281 278 276 274 273 272 271
292 294 294 295 295 295 294 294 293 293 293 293 293 293 294 295 296 297 299 300 301 302 303 304 305 305 304 304 304 304 303 302 301 302 304 305 306 308 310 311 313 314 314 315 315 315 315 315 315 316 316 315 314 313 312 311 310 308 307 305 304 303 303 304 304 305 305 305 304 304 303 301 298 295 293 290 287 284 281 279 277 274 272 271 269
291 293 294 295 295 295 295 294 294 293 293 293 293 293 294 295 296 297 298 300 301 302 303 304 304 304 303 303 303 303 302 301 301 302 304 306 307 309 310 312 313 314 315 316 317 318 318 318 317 317 317 317 316 315 314 313 312 310 309 308 306 305 305 306 307 308 308 308 307 307 306 304 301 298 294 291 288 285 282 279 277 275 273 270 267
291 292 293 294 295 295 295 294 294 294 294 294 294 294 294 295 295 296 298 299 300 302 302 303 304 303 302 302 302 301 301 300 300 302 305 306 308 309 311 312 313 314 316 317 319 319 320 320 320 319 318 318 317 316 316 315 314 313 312 311 309 308 308 308 309 310 310 310 310 309 308 306 304 302 299 296 292 288 284 280 278 276 274 270 266
290 291 292 292 294 294 294 294 294 294 294 294 294 294 294 294 295 296 297 298 300 301 302 302 302 301 301 300 299 299 299 299 300 303 305 306 307 309 311 313 314 316 317 318 319 321 321 322 322 322 321 320 319 318 318 317 316 316 315 314 312 311 311 311 311 312 313 313 312 311 310 309 307 304 302 300 297 292 287 282 279 276 274 270 264
290 290 291 291 292 293 294 294 294 294 294 294 293 294 294 294 295 295 297 298 299 300 301 301 300 300 299 297 296 297 297 298 300 302 304 305 307 309 312 314 316 317 318 319 320 322 323 324 325 325 325 324 323 322 321 320 319 319 318 317 316 315 315 315 315 315 315 315 314 312 312 311 310 307 304 302 301 297 291 285 280 277 273 268 262
289 289 290 290 291 292 293 293 294 294 294 294 293 293 293 294 294 295 296 297 299 299 299 299 298 297 295 293 294 295 296 297 299 301 303 305 307 310 313 315 317 318 319 320 321 323 324 325 327 328 328 328 328 327 325 324 323 322 321 320 320 320 320 320 320 318 318 317 316 315 313 313 312 310 307 305 302 299 294 288 283 278 273 267 260
287 288 289 289 290 291 292 293 294 294 294 294 293 293 292 293 294 294 295 297 298 298 297 296 295 293 291 290 292 293 294 295 298 300 303 305 308 310 313 315 317 319 320 321 322 324 325 327 328 330 331 331 331 331 330 328 327 325 324 323 323 324 324 324 324 322 321 320 319 317 316 315 313 312 309 306 303 299 295 290 286 281 275 268 261
286 287 288 289 289 290 291 292 293 294 294 293 292 292 292 292 293 293 295 296 296 295 294 293 290 288 287 288 290 292 293 295 297 299 302 305 308 310 313 315 317 319 320 321 323 325 326 328 330 331 332 333 333 334 334 333 331 329 327 327 326 327 327 327 327 325 324 322 321 319 318 316 315 313 311 308 304 299 294 289 285 281 276 271 265
286 286 287 288 289 290 291 292 292 293 293 292 291 291 291 291 292 293 294 294 293 293 291 288 285 284 284 286 288 290 292 294 297 299 302 304 307 309 312 314 316 318 320 322 324 325 327 329 330 332 333 334 335 336 336 336 335 332 330 330 330 330 330 330 330 329 327 325 323 322 321 319 317 315 313 310 306 301 296 290 285 280 275 271 268
285 286 287 287 288 289 290 291 291 291 291 290 289 289 290 290 291 292 292 292 291 289 286 282 280 281 283 284 286 289 291 294 296 299 301 304 306 309 311 313 316 318 320 322 323 325 327 328 330 331 333 334 335 337 338 338 337 336 334 333 333 333 333 334 334 334 332 330 328 327 325 323 321 318 316 313 309 304 299 294 288 281 275 270 266
285 285 286 287 287 288 289 289 289 289 289 287 287 288 289 289 290 290 290 289 287 284 279 276 277 279 281 283 285 288 291 293 296 299 301 303 306 308 310 312 314 316 318 320 322 324 325 327 328 330 331 332 334 336 338 338 338 338 337 336 336 336 336 336 337 338 337 336 334 333 331 329 326 323 320 317 314 310 304 299 292 286 279 273 268
285 285 285 286 286 287 287 287 287 287 286 285 285 286 287 288 288 287 286 285 282 277 273 273 275 278 280 282 285 288 291 293 295 298 301 303 305 307 309 311 313 315 317 319 320 322 324 325 326 328 329 331 332 334 336 337 338 338 338 338 338 338 338 338 339 340 340 339 338 338 337 336 333 330 327 325 323 319 314 308 301 293 285 278 272
284 285 285 285 285 285 285 285 284 284 283 283 284 285 285 285 285 284 282 280 275 270 269 271 274 277 279 282 285 288 290 293 295 298 300 302 305 307 308 310 312 313 315 316 318 320 321 323 324 326 327 328 330 332 333 335 336 337 338 338 339 340 340 341 341 342 342 342 340 340 340 340 338 336 335 333 331 328 323 316 309 302 294 285 277
284 284 284 284 283 283 282 282 281 281 281 281 282 282 282 281 281 280 277 273 268 266 267 271 274 276 280 282 285 288 290 293 295 298 300 302 304 306 307 309 310 311 313 314 316 317 319 321 322 323 324 325 327 329 330 331 333 335 336 338 339 340 341 342 343 344 345 345 343 342 342 342 341 341 340 339 337 334 329 323 315 307 299 292 283
283 283 282 282 281 281 280 279 279 279 278 278 278 279 278 277 276 274 270 265 263 264 267 271 274 277 280 283 285 288 291 293 296 298 300 302 303 305 306 308 309 310 311 312 314 315 317 318 319 320 321 323 324 326 326 327 329 330 333 335 337 339 341 342 344 345 347 347 347 346 346 345 345 345 345 345 344 341 338 332 325 316 306 297 290
282 281 281 280 279 279 278 277 276 275 275 275 274 274 273 272 271 268 263 259 260 264 268 271 274 278 280 283 286 289 291 294 296 298 300 302 304 305 306 307 308 309 309 310 312 313 314 315 316 318 319 320 322 323 324 324 324 326 329 332 334 338 340 342 343 345 347 348 349 349 349 349 349 349 350 351 351 350 348 344 339 332 322 310 300